timestamp,surface_pressure_avg,surface_temp_avg,battery_voltage,lat,long
2023-02-01 00:09:00+00:00,263.9064,2.28,12.57,47.84626,-54.09684
2023-02-01 00:19:00+00:00,267.1714,2.28,12.57,47.84626,-54.09684
2023-02-01 00:29:00+00:00,264.7547,2.29,12.57,47.84626,-54.09684
2023-02-01 00:39:00+00:00,255.2247,2.26,12.57,47.84626,-54.09684
2023-02-01 00:49:00+00:00,246.7281,2.25,12.57,47.84626,-54.09684
2023-02-01 00:59:00+00:00,246.1498,2.25,12.57,47.84626,-54.09684
2023-02-01 01:09:00+00:00,242.8698,2.25,12.57,47.84626,-54.09684
2023-02-01 01:19:00+00:00,238.1181,2.22,12.57,47.84626,-54.09684
2023-02-01 01:29:00+00:00,243.6081,2.22,12.57,47.84626,-54.09684
2023-02-01 01:39:00+00:00,249.3931,2.22,12.57,47.84626,-54.09684
2023-02-01 01:49:00+00:00,245.9714,2.25,12.57,47.84626,-54.09684
2023-02-01 01:59:00+00:00,242.8798,2.26,12.57,47.84626,-54.09684
2023-02-01 02:09:00+00:00,247.9881,2.29,12.57,47.84626,-54.09684
2023-02-01 02:19:01+00:00,245.4532,2.29,12.49,47.84626,-54.09684
2023-02-01 02:29:01+00:00,240.2415,2.28,12.49,47.84626,-54.09684
2023-02-01 02:39:01+00:00,244.0864,2.25,12.49,47.84626,-54.09684
2023-02-01 02:49:01+00:00,249.3181,2.2,12.49,47.84626,-54.09684
2023-02-01 02:59:01+00:00,244.6864,2.2,12.49,47.84626,-54.09684
2023-02-01 03:09:01+00:00,247.8731,2.2,12.49,47.84626,-54.09684
2023-02-01 03:19:00+00:00,262.6581,2.1,12.49,47.84626,-54.09684
2023-02-01 03:29:00+00:00,269.7881,1.5,12.49,47.84626,-54.09684
2023-02-01 03:39:00+00:00,264.153,1.65,12.49,47.84626,-54.09684
2023-02-01 03:49:00+00:00,263.6047,1.62,12.49,47.84626,-54.09684
2023-02-01 03:59:00+00:00,268.5897,1.67,12.49,47.84626,-54.09684
2023-02-01 04:09:00+00:00,266.8714,1.69,12.49,47.84626,-54.09684
2023-02-01 04:19:00+00:00,255.1031,2.0,12.49,47.84626,-54.09684
2023-02-01 04:29:00+00:00,251.3631,2.0,12.49,47.84626,-54.09684
2023-02-01 04:39:00+00:00,251.6081,1.9,12.49,47.84626,-54.09684
2023-02-01 04:49:00+00:00,247.8714,1.9,12.49,47.84626,-54.09684
2023-02-01 04:59:00+00:00,244.2581,1.9,12.49,47.84626,-54.09684
2023-02-01 05:09:00+00:00,250.2581,1.9,12.49,47.84626,-54.09684
2023-02-01 05:19:00+00:00,258.9947,1.92,12.49,47.84626,-54.09684
2023-02-01 05:29:00+00:00,261.2097,2.0,12.49,47.84626,-54.09684
2023-02-01 05:39:00+00:00,263.1815,1.95,12.49,47.84626,-54.09684
2023-02-01 05:49:00+00:00,267.563,1.9,12.49,47.84626,-54.09684
2023-02-01 05:59:00+00:00,277.9181,1.35,12.49,47.84626,-54.09684
2023-02-01 06:09:00+00:00,289.8098,2.21,12.49,47.84626,-54.09684
2023-02-01 06:19:01+00:00,292.618,2.3,12.49,47.84626,-54.09684
2023-02-01 06:29:01+00:00,296.0114,2.3,12.49,47.84626,-54.09684
2023-02-01 06:39:01+00:00,303.1063,2.3,12.49,47.84626,-54.09684
2023-02-01 06:49:01+00:00,307.6898,2.3,12.49,47.84626,-54.09684
2023-02-01 06:59:01+00:00,303.4464,2.3,12.49,47.84626,-54.09684
2023-02-01 07:09:01+00:00,302.9697,2.3,12.49,47.84626,-54.09684
2023-02-01 07:19:00+00:00,308.2781,2.3,12.49,47.84626,-54.09684
2023-02-01 07:29:00+00:00,309.7813,2.3,12.49,47.84626,-54.09684
2023-02-01 07:39:00+00:00,308.5997,2.3,12.49,47.84626,-54.09684
2023-02-01 07:49:00+00:00,312.6313,2.3,12.49,47.84626,-54.09684
2023-02-01 07:59:00+00:00,319.7997,2.3,12.49,47.84626,-54.09684
2023-02-01 08:09:00+00:00,321.2614,2.3,12.49,47.84626,-54.09684
2023-02-01 08:19:01+00:00,319.1514,2.3,12.49,47.84626,-54.09684
2023-02-01 08:29:01+00:00,324.9413,2.32,12.49,47.84626,-54.09684
2023-02-01 08:39:01+00:00,329.9479,2.4,12.49,47.84626,-54.09684
2023-02-01 08:49:01+00:00,325.2396,2.4,12.49,47.84626,-54.09684
2023-02-01 08:59:01+00:00,325.368,2.4,12.49,47.84626,-54.09684
2023-02-01 09:09:01+00:00,334.6364,2.4,12.49,47.84626,-54.09684
2023-02-01 09:19:01+00:00,334.7679,2.4,12.49,47.84626,-54.09684
2023-02-01 09:29:01+00:00,330.5113,2.4,12.49,47.84626,-54.09684
2023-02-01 09:39:01+00:00,335.3230000000001,2.4,12.49,47.84626,-54.09684
2023-02-01 09:49:01+00:00,338.2480000000001,2.4,12.49,47.84626,-54.09684
2023-02-01 09:59:01+00:00,330.8314,2.39,12.49,47.84626,-54.09684
2023-02-01 10:09:01+00:00,324.7913,2.4,12.49,47.84626,-54.09684
2023-02-01 10:19:01+00:00,328.033,2.4,12.49,47.84626,-54.09684
2023-02-01 10:29:01+00:00,322.1746,2.4,12.49,47.84626,-54.09684
2023-02-01 10:39:01+00:00,306.953,2.39,12.49,47.84626,-54.09684
2023-02-01 10:49:01+00:00,303.173,2.39,12.49,47.84626,-54.09684
2023-02-01 10:59:01+00:00,308.6197,2.4,12.49,47.84626,-54.09684
2023-02-01 11:09:01+00:00,304.868,2.39,12.49,47.84626,-54.09684
2023-02-01 11:19:01+00:00,294.3363,2.33,12.49,47.84626,-54.09684
2023-02-01 11:29:01+00:00,291.9647,2.36,12.49,47.84626,-54.09684
2023-02-01 11:39:01+00:00,293.0147,2.39,12.49,47.84626,-54.09684
2023-02-01 11:49:01+00:00,283.6547,2.38,12.49,47.84626,-54.09684
2023-02-01 11:59:01+00:00,275.2198,2.4,12.49,47.84626,-54.09684
2023-02-01 12:09:01+00:00,273.5614,1.7,12.49,47.84626,-54.09684
2023-02-01 12:19:01+00:00,271.3614,1.7,13.84,47.84626,-54.09684
2023-02-01 12:29:01+00:00,263.8047,1.89,13.84,47.84626,-54.09684
2023-02-01 12:39:01+00:00,259.9514,2.15,13.84,47.84626,-54.09684
2023-02-01 12:49:01+00:00,259.1198,2.38,13.84,47.84626,-54.09684
2023-02-01 12:59:01+00:00,255.7398,2.4,13.84,47.84626,-54.09684
2023-02-01 13:09:01+00:00,249.8531,2.4,13.84,47.84626,-54.09684
2023-02-01 13:19:01+00:00,245.748,2.37,14.4,47.84626,-54.09684
2023-02-01 13:29:01+00:00,245.2848,2.19,14.4,47.84626,-54.09684
2023-02-01 13:39:01+00:00,243.8798,2.09,14.4,47.84626,-54.09684
2023-02-01 13:49:01+00:00,242.2881,1.9,14.4,47.84626,-54.09684
2023-02-01 13:59:01+00:00,238.6281,1.95,14.4,47.84626,-54.09684
2023-02-01 14:09:01+00:00,233.3931,2.02,14.4,47.84626,-54.09684
2023-02-01 14:19:01+00:00,232.6998,2.24,14.56,47.84626,-54.09684
2023-02-01 14:29:01+00:00,235.2997,2.3,14.56,47.84626,-54.09684
2023-02-01 14:39:01+00:00,240.4231,2.3,14.56,47.84626,-54.09684
2023-02-01 14:49:01+00:00,241.3265,2.12,14.56,47.84626,-54.09684
2023-02-01 14:59:01+00:00,242.6464,2.08,14.56,47.84626,-54.09684
2023-02-01 15:09:01+00:00,243.9181,2.05,14.56,47.84626,-54.09684
2023-02-01 15:19:01+00:00,246.2014,2.07,14.48,47.84626,-54.09684
2023-02-01 15:29:01+00:00,243.6431,2.09,14.48,47.84626,-54.09684
2023-02-01 15:39:01+00:00,241.8348,2.09,14.48,47.84626,-54.09684
2023-02-01 15:49:01+00:00,241.3264,2.1,14.48,47.84626,-54.09684
2023-02-01 15:59:01+00:00,243.6014,2.1,14.48,47.84626,-54.09684
2023-02-01 16:09:01+00:00,244.7281,2.1,14.48,47.84626,-54.09684
2023-02-01 16:19:01+00:00,244.3398,2.1,14.24,47.84626,-54.09684
2023-02-01 16:29:01+00:00,244.3164,2.1,14.24,47.84626,-54.09684
2023-02-01 16:39:01+00:00,247.5131,2.16,14.24,47.84626,-54.09684
2023-02-01 16:49:01+00:00,248.8164,2.22,14.24,47.84626,-54.09684
2023-02-01 16:59:01+00:00,247.1414,2.39,14.24,47.84626,-54.09684
2023-02-01 17:09:01+00:00,247.7081,2.4,14.24,47.84626,-54.09684
2023-02-01 17:19:01+00:00,255.6981,2.4,14.16,47.84626,-54.09684
2023-02-01 17:29:01+00:00,255.3781,2.4,14.16,47.84626,-54.09684
2023-02-01 17:39:01+00:00,253.6281,2.4,14.16,47.84626,-54.09684
2023-02-01 17:49:01+00:00,256.2214,2.4,14.16,47.84626,-54.09684
2023-02-01 17:59:01+00:00,266.3914,2.4,14.16,47.84626,-54.09684
2023-02-01 18:09:01+00:00,270.5131,2.43,14.16,47.84626,-54.09684
2023-02-01 18:19:01+00:00,271.2697,2.5,13.92,47.84626,-54.09684
2023-02-01 18:29:01+00:00,277.0847,2.53,13.92,47.84626,-54.09684
2023-02-01 18:39:01+00:00,286.02299999999997,2.58,13.92,47.84626,-54.09684
2023-02-01 18:49:01+00:00,286.0163,2.59,13.92,47.84626,-54.09684
2023-02-01 18:59:01+00:00,283.7897,2.6,13.92,47.84626,-54.09684
2023-02-01 19:09:01+00:00,289.683,2.6,13.92,47.84626,-54.09684
2023-02-01 19:19:01+00:00,294.7063,2.5,13.6,47.84626,-54.09684
2023-02-01 19:29:01+00:00,291.8831,2.5,13.6,47.84626,-54.09684
2023-02-01 19:39:01+00:00,291.4697,2.5,13.6,47.84626,-54.09684
2023-02-01 19:49:01+00:00,298.4798,2.5,13.6,47.84626,-54.09684
2023-02-01 19:59:01+00:00,304.4297,2.5,13.6,47.84626,-54.09684
2023-02-01 20:09:01+00:00,301.013,2.5,13.6,47.84626,-54.09684
2023-02-01 20:19:01+00:00,300.3831,2.5,12.97,47.84626,-54.09684
2023-02-01 20:29:01+00:00,309.3629,2.5,12.97,47.84626,-54.09684
2023-02-01 20:39:01+00:00,313.698,2.5,12.97,47.84626,-54.09684
2023-02-01 20:49:01+00:00,312.153,2.5,12.97,47.84626,-54.09684
2023-02-01 20:59:01+00:00,313.9879,2.5,12.97,47.84626,-54.09684
2023-02-01 21:09:01+00:00,317.478,2.5,12.97,47.84626,-54.09684
2023-02-01 21:19:01+00:00,315.5031,2.5,12.73,47.84626,-54.09684
2023-02-01 21:29:01+00:00,315.798,2.53,12.73,47.84626,-54.09684
2023-02-01 21:39:01+00:00,323.733,2.6,12.73,47.84626,-54.09684
2023-02-01 21:49:01+00:00,327.668,2.7,12.73,47.84626,-54.09684
2023-02-01 21:59:01+00:00,326.6046,2.77,12.73,47.84626,-54.09684
2023-02-01 22:09:01+00:00,327.9079,2.7,12.73,47.84626,-54.09684
2023-02-01 22:19:01+00:00,324.3114,2.66,12.73,47.84626,-54.09684
2023-02-01 22:29:01+00:00,325.418,2.72,12.73,47.84626,-54.09684
2023-02-01 22:39:01+00:00,321.0597,2.77,12.73,47.84626,-54.09684
2023-02-01 22:49:01+00:00,319.093,2.79,12.73,47.84626,-54.09684
2023-02-01 22:59:01+00:00,316.4963,2.8,12.73,47.84626,-54.09684
2023-02-01 23:09:01+00:00,313.0814,2.7,12.73,47.84626,-54.09684
2023-02-01 23:19:01+00:00,306.7897,2.73,12.65,47.84626,-54.09684
2023-02-01 23:29:01+00:00,300.293,2.79,12.65,47.84626,-54.09684
2023-02-01 23:39:01+00:00,293.1364,2.8,12.65,47.84626,-54.09684
2023-02-01 23:49:01+00:00,285.8014,2.78,12.65,47.84626,-54.09684
2023-02-01 23:59:01+00:00,280.5364,2.4,12.65,47.84626,-54.09684
